Weather History for KMHE - March, 2013

Change the Weather History Date:

Friday, March 15, 2013

  Actual Average Record
Temperature  
Mean Temperature 32 °F 34 °F  
Max Temperature 41 °F 44 °F 82 °F (2015)
Min Temperature 23 °F 23 °F -16 °F (1897)
Degree Days  
Heating Degree Days 33 31  
Month to date heating degree days 569 510  
Since 1 July heating degree days 6034 6032  
Cooling Degree Days 0 0  
Month to date cooling degree days 0 0  
Year to date cooling degree days 0 0  
Moisture  
Dew Point 30 °F    
Average Humidity 89    
Maximum Humidity 96    
Minimum Humidity 82    
Precipitation  
Precipitation 0.00 in 0.03 in 1.33 in (1938)
Month to date precipitation 0.67 0.41  
Year to date precipitation 2.24 0.97  
Snow  
Snow 0.00 in - 5.60 in (2004)
Month to date snowfall 1.7  
Since 1 July snowfall 29.6  
Snow Depth T in    
Sea Level Pressure  
Sea Level Pressure 29.92 in    
Wind  
Wind Speed 12 mph (North)    
Max Wind Speed 23 mph    
Max Gust Speed 28 mph    
Visibility 6 miles    
Events      
T = Trace of Precipitation, MM = Missing Value Source: NWS Daily Summary

Daily Weather History Graph

Daily Weather History Graph

Search for Another Location

Airport or City:

Trip Planner

Search our weather history database for the weather conditions in past years. The results will help you decide how hot, cold, wet, or windy it might be!

Date:

Astronomy

Mar. 15, 2013 Rise Set
Actual Time 7:43 AM CDT 7:38 PM CDT
Civil Twilight 7:15 AM CDT 8:07 PM CDT
Nautical Twilight 6:41 AM CDT 8:40 PM CDT
Astronomical Twilight 6:07 AM CDT 9:14 PM CDT
Moon 9:26 AM CDT (3/15) No Moon Set
Length of Visible Light 12h 52m
Length of Day
11h 54m
Waxing Crescent, 15% of the Moon is Illuminated
Mar 15
Waxing Crescent
Mar 19
First Quarter
Mar 27
Full
Apr 2
Last Quarter
Apr 10
New

Hourly Weather History & Observations

Time (CDT) Temp. Windchill Dew Point Humidity Pressure Visibility Wind Dir Wind Speed Gust Speed Precip Events Conditions
12:53 AM 41.0 °F 35.2 °F 37.0 °F 86% 29.96 in 10.0 mi SSE 9.2 mph - N/A   Clear
1:53 AM 39.9 °F 35.1 °F 37.0 °F 89% 29.94 in 10.0 mi SE 6.9 mph - N/A   Overcast
2:53 AM 37.9 °F 30.9 °F 36.0 °F 93% 29.93 in 10.0 mi NE 10.4 mph - N/A   Overcast
3:53 AM 37.9 °F 33.5 °F 35.1 °F 89% 29.91 in 10.0 mi ENE 5.8 mph - N/A   Scattered Clouds
4:53 AM 37.9 °F 33.5 °F 35.1 °F 89% 29.85 in 10.0 mi East 5.8 mph - N/A   Mostly Cloudy
5:53 AM 37.0 °F - 35.1 °F 93% 29.85 in 10.0 mi Calm Calm - N/A   Clear
6:53 AM 35.1 °F 27.4 °F 33.1 °F 92% 29.88 in 9.0 mi North 10.4 mph - N/A   Clear
7:53 AM 34.0 °F 26.0 °F 32.0 °F 92% 29.90 in 8.0 mi North 10.4 mph - N/A   Clear
8:41 AM 33.8 °F 24.8 °F 30.2 °F 87% 29.87 in 5.0 mi North 12.7 mph - N/A   Mostly Cloudy
8:53 AM 33.1 °F 23.4 °F 30.9 °F 92% 29.90 in 5.0 mi North 13.8 mph - N/A   Overcast
9:53 AM 35.1 °F 27.4 °F 30.9 °F 85% 29.90 in 6.0 mi North 10.4 mph - N/A   Scattered Clouds
10:33 AM 35.6 °F 27.1 °F 30.2 °F 81% 29.85 in 6.0 mi NNE 12.7 mph - N/A   Partly Cloudy
10:53 AM 35.1 °F 26.4 °F 30.9 °F 85% 29.89 in 7.0 mi North 12.7 mph - N/A   Partly Cloudy
11:11 AM 35.6 °F 26.6 °F 30.2 °F 81% 29.88 in 8.0 mi North 13.8 mph - N/A   Mostly Cloudy
11:33 AM 35.6 °F 27.1 °F 30.2 °F 81% 29.87 in 7.0 mi NNE 12.7 mph - N/A   Overcast
11:53 AM 35.1 °F 26.4 °F 30.9 °F 85% 29.92 in 6.0 mi NNW 12.7 mph - N/A   Overcast
12:53 PM 36.0 °F 28.5 °F 32.0 °F 86% 29.90 in 5.0 mi North 10.4 mph - N/A   Overcast
1:53 PM 36.0 °F 28.0 °F 32.0 °F 86% 29.90 in 5.0 mi North 11.5 mph - N/A   Overcast
2:53 PM 37.0 °F 31.6 °F 32.0 °F 82% 29.87 in 5.0 mi North 6.9 mph - N/A   Haze
3:53 PM 37.0 °F 32.4 °F 32.0 °F 82% 29.85 in 6.0 mi NNW 5.8 mph - N/A   Haze
4:53 PM 36.0 °F 27.1 °F 32.0 °F 86% 29.88 in 6.0 mi NW 13.8 mph - N/A   Overcast
5:35 PM 33.8 °F 25.8 °F 30.2 °F 87% 29.84 in 5.0 mi NNW 10.4 mph - N/A   Overcast
5:53 PM 34.0 °F 24.6 °F 30.0 °F 85% 29.89 in 5.0 mi NNW 13.8 mph - N/A   Overcast
6:53 PM 30.9 °F 21.7 °F 28.0 °F 89% 29.91 in 3.0 mi NNW 11.5 mph - N/A   Overcast
7:19 PM 30.2 °F 19.3 °F 28.4 °F 93% 29.89 in 2.5 mi NW 15.0 mph - N/A   Overcast
7:53 PM 28.9 °F 17.3 °F 27.0 °F 92% 29.95 in 2.0 mi NW 16.1 mph - N/A   Overcast
8:17 PM 28.4 °F 16.6 °F 26.6 °F 93% 29.93 in 3.0 mi NNW 16.1 mph - N/A   Overcast
8:32 PM 28.4 °F 16.6 °F 26.6 °F 93% 29.93 in 2.0 mi NNW 16.1 mph 25.3 mph N/A   Overcast
8:41 PM 28.4 °F 16.2 °F 26.6 °F 93% 29.93 in 1.5 mi NNW 17.3 mph - N/A   Overcast
8:53 PM 28.0 °F 17.5 °F 27.0 °F 96% 29.97 in 1.2 mi NNW 12.7 mph - N/A   Overcast
9:09 PM 28.4 °F 17.0 °F 26.6 °F 93% 29.93 in 2.5 mi North 15.0 mph - N/A   Overcast
9:17 PM 28.4 °F 16.6 °F 26.6 °F 93% 29.94 in 3.0 mi NNW 16.1 mph - N/A   Overcast
9:33 PM 26.6 °F 14.7 °F 26.6 °F 100% 29.95 in 2.5 mi NNW 15.0 mph - N/A   Overcast
9:40 PM 26.6 °F 15.2 °F 26.6 °F 100% 29.95 in 3.0 mi North 13.8 mph - N/A   Overcast
9:53 PM 27.0 °F 14.3 °F 25.0 °F 92% 30.00 in 4.0 mi NNW 17.3 mph - N/A   Overcast
10:08 PM 26.6 °F 15.2 °F 24.8 °F 93% 29.96 in 6.0 mi NNW 13.8 mph - N/A   Overcast
10:53 PM 26.1 °F 12.7 °F 23.0 °F 88% 30.03 in 10.0 mi NNW 18.4 mph - N/A   Overcast
11:45 PM 24.8 °F 11.9 °F 21.2 °F 86% 30.00 in 10.0 mi NNW 16.1 mph - N/A   Overcast
11:53 PM 24.1 °F 10.6 °F 21.0 °F 88% 30.06 in 10.0 mi NNW 17.3 mph 25.3 mph N/A   Overcast